Select another period ( hide this area )

Units Period Custom range Directly to
Metric English Both
Daily Weekly Monthly Yearly
use both date-selectors for a custom range
previous Day
With this date
Daily Summary for Thursday 25 April 2024
Time Temp. ( °C ) Dew pt. ( °C ) Wind ( km/h ) From Gust ( km/h ) Pressure ( hPa ) Humid.( % ) Rainrate ( cm )
High13,3 6,1 13,0 North ( 85/175 ) 15,0 1007,5 65 -
Average12,6 2,3 4,0 North #19/44 9,0 1006,8 51 -
Low11,9 -3,9 -   3,0 1005,8 30 -
Daily Tabular details for Thursday 25 April 2024
Time Temp. ( °C ) Dew pt. ( °C ) Wind ( km/h ) From Gust ( km/h ) Pressure ( hPa ) Humid.( % ) Rainrate ( cm )
00:01 12,8 5,7 6,0 WNW 10,0 1007,5 62 -
00:06 12,8 5,9 3,0 WNW 6,0 1007,5 63 -
00:11 12,7 5,9 3,0 WNW 8,0 1007,5 63 -
00:16 12,7 5,8 6,0 WNW 8,0 1007,1 63 -
00:21 12,7 6,0 5,0 North 10,0 1007,1 64 -
00:26 12,7 6,0 3,0 WNW 11,0 1007,1 64 -
00:31 12,6 6,0 3,0 NNW 11,0 1007,5 64 -
00:36 12,5 5,9 6,0 WNW 8,0 1007,1 64 -
00:41 12,4 6,1 3,0 WNW 8,0 1007,5 65 -
00:46 12,3 6,0 3,0 WNW 8,0 1007,5 65 -
00:51 12,3 6,0 2,0 North 8,0 1007,5 65 -
00:56 12,3 5,9   Calm 8,0 1007,5 65 -
01:01 12,2 5,8 2,0 NW 8,0 1007,5 65 -
01:06 12,2 5,8 5,0 North 6,0 1007,5 65 -
01:11 12,1 5,7 6,0 NW 6,0 1007,5 65 -
01:16 11,9 4,9 6,0 NW 11,0 1007,5 62 -
01:21 12,0 4,5 5,0 North 11,0 1007,1 60 -
01:26 12,2 4,2 5,0 North 11,0 1007,5 58 -
01:31 12,3 4,5 3,0 North 11,0 1007,5 59 -
01:36 12,3 4,8   Calm 3,0 1007,1 60 -
01:41 12,3 5,0   Calm 3,0 1007,1 61 -
01:46 12,2 4,9 2,0 North 3,0 1007,1 61 -
01:51 12,1 4,8 2,0 North 5,0 1007,1 61 -
01:56 12,1 4,5 2,0 WNW 5,0 1007,1 60 -
02:01 12,1 4,3 3,0 WNW 6,0 1006,8 59 -
02:06 12,0 3,2 3,0 North 6,0 1006,8 55 -
02:11 12,1 2,8 3,0 WNW 6,0 1006,8 53 -
02:16 12,1 2,0 3,0 North 6,0 1006,8 50 -
02:21 12,2 1,2 3,0 North 6,0 1006,8 47 -
02:26 12,3 0,1 3,0 WNW 6,0 1006,4 43 -
02:31 12,4 -0,5 6,0 North 10,0 1006,4 41 -
02:37 12,6 -1,7 10,0 North 11,0 1006,4 37 -
02:42 12,8 -2,2 3,0 North 11,0 1006,4 35 -
02:47 13,0 -2,9 3,0 West 11,0 1006,1 33 -
02:52 13,1 -3,2 2,0 WNW 11,0 1006,1 32 -
02:57 13,2 -3,5 13,0 North 13,0 1006,1 31 -
03:02 13,3 -3,4 8,0 NNW 13,0 1006,1 31 -
03:07 13,3 -3,4 8,0 WNW 13,0 1006,1 31 -
03:12 13,3 -3,9 8,0 North 15,0 1006,1 30 -
03:17 13,3 -3,9 3,0 North 15,0 1005,8 30 -
03:22 13,3 -3,9 3,0 WNW 15,0 1005,8 30 -
03:27 13,3 -3,4 2,0 North 15,0 1005,8 31 -
03:32 13,3 -3,5 5,0 WNW 15,0 1005,8 31 -
03:37 13,3 -3,5 2,0 North 6,0 1005,8 31 -
Daily Summary for Thursday 25 April 2024
Time Temp. ( °C ) Dew pt. ( °C ) Wind ( km/h ) From Gust ( km/h ) Pressure ( hPa ) Humid.( % ) Rainrate ( cm )
High13,3 6,1 13,0 North ( 85/175 ) 15,0 1007,5 65 -
Average12,6 2,3 4,0 North #19/44 9,0 1006,8 51 -
Low11,9 -3,9 -   3,0 1005,8 30 -
Daily Tabular details for Thursday 25 April 2024
Time Temp. ( °C ) Dew pt. ( °C ) Wind ( km/h ) From Gust ( km/h ) Pressure ( hPa ) Humid.( % ) Rainrate ( cm )
00:01 12,8 5,7 6,0 WNW 10,0 1007,5 62 -
00:06 12,8 5,9 3,0 WNW 6,0 1007,5 63 -
00:11 12,7 5,9 3,0 WNW 8,0 1007,5 63 -
00:16 12,7 5,8 6,0 WNW 8,0 1007,1 63 -
00:21 12,7 6,0 5,0 North 10,0 1007,1 64 -
00:26 12,7 6,0 3,0 WNW 11,0 1007,1 64 -
00:31 12,6 6,0 3,0 NNW 11,0 1007,5 64 -
00:36 12,5 5,9 6,0 WNW 8,0 1007,1 64 -
00:41 12,4 6,1 3,0 WNW 8,0 1007,5 65 -
00:46 12,3 6,0 3,0 WNW 8,0 1007,5 65 -
00:51 12,3 6,0 2,0 North 8,0 1007,5 65 -
00:56 12,3 5,9   Calm 8,0 1007,5 65 -
01:01 12,2 5,8 2,0 NW 8,0 1007,5 65 -
01:06 12,2 5,8 5,0 North 6,0 1007,5 65 -
01:11 12,1 5,7 6,0 NW 6,0 1007,5 65 -
01:16 11,9 4,9 6,0 NW 11,0 1007,5 62 -
01:21 12,0 4,5 5,0 North 11,0 1007,1 60 -
01:26 12,2 4,2 5,0 North 11,0 1007,5 58 -
01:31 12,3 4,5 3,0 North 11,0 1007,5 59 -
01:36 12,3 4,8   Calm 3,0 1007,1 60 -
01:41 12,3 5,0   Calm 3,0 1007,1 61 -
01:46 12,2 4,9 2,0 North 3,0 1007,1 61 -
01:51 12,1 4,8 2,0 North 5,0 1007,1 61 -
01:56 12,1 4,5 2,0 WNW 5,0 1007,1 60 -
02:01 12,1 4,3 3,0 WNW 6,0 1006,8 59 -
02:06 12,0 3,2 3,0 North 6,0 1006,8 55 -
02:11 12,1 2,8 3,0 WNW 6,0 1006,8 53 -
02:16 12,1 2,0 3,0 North 6,0 1006,8 50 -
02:21 12,2 1,2 3,0 North 6,0 1006,8 47 -
02:26 12,3 0,1 3,0 WNW 6,0 1006,4 43 -
02:31 12,4 -0,5 6,0 North 10,0 1006,4 41 -
02:37 12,6 -1,7 10,0 North 11,0 1006,4 37 -
02:42 12,8 -2,2 3,0 North 11,0 1006,4 35 -
02:47 13,0 -2,9 3,0 West 11,0 1006,1 33 -
02:52 13,1 -3,2 2,0 WNW 11,0 1006,1 32 -
02:57 13,2 -3,5 13,0 North 13,0 1006,1 31 -
03:02 13,3 -3,4 8,0 NNW 13,0 1006,1 31 -
03:07 13,3 -3,4 8,0 WNW 13,0 1006,1 31 -
03:12 13,3 -3,9 8,0 North 15,0 1006,1 30 -
03:17 13,3 -3,9 3,0 North 15,0 1005,8 30 -
03:22 13,3 -3,9 3,0 WNW 15,0 1005,8 30 -
03:27 13,3 -3,4 2,0 North 15,0 1005,8 31 -
03:32 13,3 -3,5 5,0 WNW 15,0 1005,8 31 -
03:37 13,3 -3,5 2,0 North 6,0 1005,8 31 -

Download your copy of this data-set  from WeatherUnderground

Our weather-data as stored at Weather Underground. Original script b Jim McMurry. Rewritten for template use Leuven-Template